Kuiper-00037

operational
NORAD ID: 63749 Int'l Des: 2025-088 Owner: KUIP Country: US Constellation: kuiper
LEOCIRCULARSTARLINK_TYPE

Über Kuiper-00037

Beschreibung wird geladen...

Live-Position

3D-Globus wird geladen...

Nächste Überflüge

Höhenverlauf

Altitude vs Time

uPlot chart will show altitude changes over time

Zweizeiliger Elementsatz

1 63749U 25088AB 25258.46899074 -.00000257 00000-0 -44408-5 0 9992
2 63749 51.8964 167.8880 0006692 156.2137 203.9136 14.79935057 22367
Epoch: 15. Sept. 2025 • Age: 16 hours

Aktueller Status

Höhe 634.2 km
Geschwindigkeit 7.54 km/s
Subsatellitenpunkt 2.61°N, 119.43°E
Startdatum 28. Apr. 2025
Alter 0.3 years
Typ internet

Technische Details

Klassifizierung Payload
Masse 490.00 kg
Trockenmasse 490.00 kg
Gesamtmasse 490.00 kg
Länge 1.80 m
Durchmesser 0.70 m
Spannweite 5.00 m
Form Box + 2 pan
Hersteller KUIP
Bus-Typ Kuiper
Phasenstatus In Orbit
Besitzer/Staat KUIP/US

Große Konstellationen

Loading constellations...